Location: Brno
(49.2000°N, 16.6330°E)
Time: 22:09:00
(UTC+01:00)

COSMOS 2251 DEB - Visible Passes

Search period start: 01 December 2021 00:00
Search period end: 11 December 2021 00:00
Orbit: 639 x 685 km, 73.7° (Epoch: 30 November)

Date Brightness Start Highest point End Pass type
(mag) Time Alt. Az. Time Alt. Az. Time Alt. Az.
01 Dec ? 04:47:16 76° SSE 04:47:16 76° SSE 04:51:29 10° SSE visible
01 Dec ? 06:25:22 11° W 06:25:56 11° W 06:27:28 10° WSW visible
01 Dec ? 19:03:44 10° SSW 19:04:24 14° SSW 19:04:24 14° SSW visible
02 Dec ? 03:40:42 17° ESE 03:40:42 17° ESE 03:42:03 10° ESE visible
02 Dec ? 05:18:48 33° SW 05:18:48 33° SW 05:22:03 10° S visible
02 Dec ? 17:56:18 10° SSE 17:57:54 18° SE 17:57:54 18° SE visible
02 Dec ? 19:35:06 10° SW 19:36:00 15° SW 19:36:00 15° SW visible
03 Dec ? 04:12:18 21° SE 04:12:18 21° SE 04:13:52 10° SSE visible
03 Dec ? 05:50:24 13° WSW 05:50:24 13° WSW 05:51:16 10° SW visible
03 Dec ? 18:26:17 10° S 18:29:25 40° SSE 18:29:25 40° SSE visible
03 Dec ? 20:07:23 10° WSW 20:07:31 11° WSW 20:07:31 11° WSW visible
04 Dec ? 04:43:57 15° S 04:43:57 15° S 04:44:46 10° S visible
04 Dec ? 17:19:25 10° SE 17:22:31 18° E 17:22:45 18° E visible
04 Dec ? 18:57:19 10° SW 19:00:50 47° WSW 19:00:50 47° WSW visible
05 Dec ? 17:48:55 10° S 17:53:15 42° ESE 17:54:05 38° ENE visible
05 Dec ? 19:29:16 10° WSW 19:32:10 25° WNW 19:32:10 25° WNW visible
06 Dec ? 16:42:52 10° SE 16:45:05 13° E 16:47:14 10° ENE visible
06 Dec ? 18:19:37 10° SSW 18:24:14 80° WNW 18:25:18 52° N visible
06 Dec ? 20:02:22 10° WNW 20:03:23 13° WNW 20:03:23 13° WNW visible
07 Dec ? 17:11:39 10° SSE 17:15:42 32° ESE 17:18:23 18° NE visible
07 Dec ? 18:51:16 10° WSW 18:55:28 35° WNW 18:56:28 31° NNW visible
08 Dec ? 17:42:01 10° SSW 17:46:35 78° ESE 17:49:27 23° NNE visible
08 Dec ? 19:23:53 10° W 19:26:58 18° NW 19:27:31 17° NW visible
09 Dec ? 16:34:31 10° SSE 16:38:11 24° E 16:41:50 10° NE visible
09 Dec ? 18:13:19 10° SW 18:17:44 45° WNW 18:20:26 21° N visible
10 Dec ? 17:04:27 10° S 17:08:57 57° ESE 17:13:18 11° NNE visible
10 Dec ? 18:45:35 10° WSW 18:49:08 22° NW 18:51:21 16° NNW visible
